Regional Weather Roundup
Issued by NWS Bismarck, ND

Home | Current Version | Previous Version | Text Only | Print | Product List | Glossary On
Versions: 1 2 3 4 5 6 7 8 9 10 11 12 13 14 15 16 17 18 19 20 21 22 23 24 25 26 27 28 29 30 31 32 33 34 35 36 37 38 39 40 41 42 43 44 45 46 47 48 49 50
000
ASUS43 KBIS 100410
RWRBIS

NWR BROADCAST TEXT
NATIONAL WEATHER SERVICE BISMARCK ND
1000 PM CST FRI DEC 09 2016

NOTE: "FAIR" INDICATES FEW OR NO CLOUDS BELOW 12,000 FEET WITH NO
SIGNIFICANT WEATHER AND/OR OBSTRUCTIONS TO VISIBILITY.


CITY           SKY/WX    TMP DP  RH WIND       PRES   REMARKS
WILLISTON      CLOUDY   -14 -20  74 NE3       30.46F
MINOT          CLOUDY   -12 -18  74 W6        30.48F WCI -26
MINOT AFB      CLOUDY   -20 -26  74 NW7       30.48F WCI -37
BISMARCK       CLOUDY   -15 -19  82 CALM      30.52S
DICKINSON      CLOUDY   -17 -22  78 S5        30.35F WCI -30
GARRISON         N/A    -18 -23  77 CALM      30.47S
HETTINGER ARPT CLOUDY   -11 -15  82 S3        30.38S
JAMESTOWN      CLOUDY   -13 -17  82 NW9       30.51S WCI -31
CARRINGTON     FAIR     -17 -20  83 W9        30.52S WCI -36
HAZEN          MOCLDY   -17 -26  63 CALM      30.51S
RUGBY            N/A    -20 -26  76 W6        30.51S WCI -36
STANLEY        FAIR     -17 -20  83 CALM      30.43F
TIOGA          FAIR     -17 -20  83 CALM      30.43S
WATFORD CITY   FAIR     -18 -24  76 CALM      30.44F
$$

CITY           SKY/WX    TMP DP  RH WIND       PRES   REMARKS
GRAND FORKS    CLOUDY    -4 -10  75 NW7       30.56S WCI -18
GRAND FORKS AF CLOUDY    -4 -11  73 NW7       30.56R WCI -18
DEVILS LAKE    NOT AVBL
FARGO          CLOUDY    -4 -12  68 NW10      30.57R WCI -21
CANDO          FAIR     -15 -18  84 NW3       30.53S
CAVALIER         N/A     -4  -9  77 NW8       30.56S WCI -19
GRAFTON        CLOUDY    -2  -8  78 NW7       30.58S WCI -16
GWINNER        FAIR      -6  -9  84 NW10      30.54S WCI -23
LANGDON        FAIR     -11 -17  77 NW7       30.47S WCI -26
ROLLA          FAIR     -18 -22  83 CALM      30.46S
WALHALLA         N/A     -6  -6 100 NW6       30.56S WCI -18
$$

CITY           SKY/WX    TMP DP  RH WIND       PRES   REMARKS
ABERDEEN       CLOUDY    -4 -12  68 N7        30.54F WCI -18
MOBRIDGE       CLOUDY    -5 -11  75 NW6       30.47R HAZE    WCI -18
BUFFALO          N/A     -4  -8  83 E8        30.20F WCI -19
RAPID CITY     LGT SNOW   1  -3  83 SE10      30.28F FOG     WCI -15
GLASGOW        CLOUDY    -3  -8  79 E18G24    30.31F WCI -25
SIDNEY         CLOUDY   -14 -18  82 N3        30.45F
WOLF POINT     CLOUDY    -6 -13  71 E10       30.41F WCI -24
GLENDIVE       CLOUDY    -9 -14  78 NE7       30.36F WCI -24
MILES CITY     CLOUDY     4  -3  73 NE8       30.28F WCI  -9
BAKER          CLOUDY    -6 -10  83 SE13      30.28F WCI -25
$$

CITY           SKY/WX    TMP DP  RH WIND       PRES   REMARKS
BILLINGS       FLURRIES   5   2  87 NE5       30.10F WCI  -4
GREAT FALLS    CLOUDY     0  -5  79 NE5       30.04F WCI -10
REGINA         CLEAR    -17 -20  83 S6        30.43F WCI -31
ESTEVAN        PTCLDY   -18 -24  76 W3        30.45F
$$




USA.gov is the U.S. government's official web portal to all federal, state and local government web resources and services.